SCP
1 0 0 0 0 0 0 0 0 0 0 0 0 0 0 0 0 0 0 0 0 0 0 0 0 1 1 1 1 1 1 1 0 0 0 0 1 1 1 1 0 0 0
1 1 0 0 0 0 0 0 0 0 0 0 0 0 0 0 0 0 0 0 0 0 0 0 0 0 1 1 1 1 1 1 0 0 0 0 1 1 1 1 0 0 0
1 1 0 0 0 0 0 0 0 0 0 0 0 0 0 0 0 0 0 0 0 0 0 0 0 0 0 0 1 1 1 1 1 0 0 0 0 0 1 0 0 0 0
0 0 0 0 0 0 0 0 0 0 0 0 0 0 0 0 0 0 0 0 0 0 0 0 0 0 0 0 0 0 0 0 0 0 0 0 0 0 0 0 0 0 0
0 0 0 0 0 0 0 0 0 0 0 0 0 0 0 0 0 0 0 0 0 0 0 0 0 0 0 0 0 0 0 0 0 0 0 0 0 0 0 0 0 0 0
0 0 0 0 0 0 0 0 0 0 0 0 1 1 0 0 0 0 0 0 0 0 0 0 0 0 0 0 0 0 0 0 0 0 0 0 0 0 0 0 0 0 0
0 0 0 0 0 0 0 0 0 0 0 0 1 1 0 0 0 0 0 0 0 0 0 0 0 0 0 0 0 0 0 0 0 0 0 0 0 0 0 0 0 0 0
0 0 0 0 0 0 0 0 0 0 0 0 0 0 0 0 0 0 0 0 0 0 0 0 0 0 0 0 0 0 0 0 0 0 0 0 0 0 0 0 0 0 0
0 0 0 0 0 0 0 0 0 0 0 0 0 0 0 0 0 0 0 0 0 0 0 0 0 0 0 0 0 0 0 0 0 0 0 0 0 0 0 0 0 0 0
0 0 0 0 0 0 0 0 0 0 0 0 0 0 0 0 0 0 0 0 0 0 0 0 0 0 0 0 0 0 0 0 0 0 0 0 0 0 0 0 0 0 0
0 0 0 0 0 0 0 0 0 0 0 0 0 0 0 0 0 0 0 0 0 0 0 0 0 0 0 0 0 0 0 0 0 0 0 0 0 0 0 0 0 0 0
0 0 0 0 0 0 0 0 0 0 0 0 0 0 0 0 0 0 0 0 0 0 0 0 0 0 0 0 0 0 0 0 0 0 0 0 0 0 0 0 0 0 0
0 0 0 0 0 0 0 0 0 0 0 0 0 0 0 0 0 0 0 0 0 0 0 0 0 0 0 0 0 0 0 0 0 0 0 0 0 0 0 0 0 0 0
0 0 0 0 0 0 0 0 0 0 0 0 0 0 0 0 0 0 0 0 0 0 0 0 0 0 0 0 0 0 0 0 0 0 0 0 0 0 0 0 0 0 0
0 0 0 0 0 0 0 0 0 0 0 0 0 0 0 0 0 0 0 0 0 0 0 0 0 0 0 0 0 0 0 0 0 0 0 0 0 0 0 0 0 0 0
0 0 0 0 0 0 0 0 0 0 0 0 0 0 0 0 0 0 0 0 0 0 0 0 0 0 0 0 0 0 0 0 0 0 0 0 0 0 0 0 0 0 0
0 0 0 0 0 0 0 0 0 0 0 0 0 0 0 0 0 0 0 0 0 0 0 0 0 0 0 0 0 0 0 0 0 0 0 0 0 0 0 0 0 0 0
0 0 0 0 0 0 0 0 0 0 0 0 0 0 0 0 0 0 0 0 0 0 0 0 0 0 0 0 0 0 0 0 0 0 0 0 0 0 0 0 0 0 0
0 0 0 0 0 0 0 0 0 0 0 0 0 0 0 0 0 0 0 0 0 0 0 0 0 0 0 0 0 0 0 0 0 0 0 0 0 0 0 0 0 0 0
0 0 0 0 0 0 0 0 0 0 0 0 0 0 0 0 0 0 0 0 0 0 0 0 0 0 0 0 0 0 0 0 0 0 0 0 0 0 0 0 0 0 0
0 0 0 0 0 0 0 0 0 0 0 0 0 0 0 0 0 0 0 0 0 0 0 0 0 0 0 0 0 0 0 0 0 0 0 0 0 0 0 0 0 0 0
0 0 0 0 0 0 0 0 0 0 0 0 0 0 0 0 0 0 0 0 0 0 0 0 0 0 0 0 0 0 0 0 0 0 0 0 0 0 0 0 0 0 0
0 0 0 0 0 0 0 0 0 0 0 0 0 0 0 0 0 0 0 0 0 0 0 0 0 0 0 0 0 0 0 0 0 0 0 0 0 0 0 0 0 0 0
0 0 0 0 0 0 0 0 0 0 0 0 0 0 0 0 0 0 0 0 0 0 0 0 0 0 0 0 0 0 0 0 0 0 0 0 0 0 0 0 0 0 0
0 0 0 0 0 0 0 0 0 0 0 0 0 0 0 0 0 0 0 0 0 0 0 0 0 0 0 0 0 0 0 0 0 0 0 0 0 0 0 0 0 0 0
0 0 0 0 0 0 0 0 0 0 0 0 0 0 0 0 0 0 0 0 0 0 0 0 0 0 0 0 0 0 0 0 0 0 0 0 0 0 0 0 0 0 0
Wind_Speed
5 5 4 4 4 4 4 3 3 3 3 3 3 4 4 4 4 4 5 5 5 5 5 5 6 6 4 4 4 5 4 5 6 5 4 3 2 3 2 3 3 3 3
4 4 3 3 2 2 2 2 2 2 3 3 2 2 3 3 4 4 4 4 4 4 4 4 4 4 4 4 3 4 4 4 5 6 4 3 2 2 2 2 2 1 0
4 3 3 2 2 2 1 1 2 2 2 2 2 2 2 2 2 3 3 3 3 2 2 3 4 4 4 3 3 3 3 3 3 4 4 2 2 2 1 1 0 1 1
5 4 3 3 2 2 1 1 1 1 1 1 1 1 1 1 1 2 2 1 1 1 1 2 3 3 4 3 3 3 3 3 2 2 2 2 1 1 1 1 0 0 1
5 4 4 4 3 3 2 1 1 1 1 2 2 1 0 0 0 0 1 1 1 1 1 2 3 4 6 4 3 3 2 2 1 1 1 1 1 1 1 1 0 0 0
5 5 4 4 3 3 2 2 1 1 1 2 2 2 2 2 4 4 1 1 2 2 2 2 3 4 5 7 7 7 5 3 2 1 1 1 2 2 1 1 1 1 1
5 4 4 4 4 3 3 2 2 2 2 3 3 3 4 4 5 4 3 2 3 3 3 3 3 4 4 5 7 7 8 8 6 3 3 3 3 3 2 2 2 2 2
5 5 4 4 4 4 4 4 3 3 4 4 4 4 5 5 6 4 3 4 4 5 5 5 5 5 5 4 6 8 8 8 7 6 5 5 5 4 2 1 0 1 1
6 5 5 5 5 5 5 5 5 5 5 5 5 5 6 6 7 5 2 5 5 6 7 8 7 7 8 6 7 7 7 6 8 9 8 7 7 7 5 2 2 1 1
6 5 5 5 5 6 6 6 6 6 6 7 7 7 7 7 8 6 4 4 5 6 7 8 11 9 9 7 6 6 7 6 5 6 5 5 5 6 6 5 4 3 2
6 6 5 5 6 6 6 5 5 6 7 7 7 7 8 8 9 9 7 4 5 6 6 6 8 10 10 9 7 7 5 3 4 5 5 5 5 5 6 6 6 5 4
7 6 6 6 5 6 6 6 6 6 6 6 6 7 6 7 8 9 10 9 6 7 6 7 8 8 9 9 8 7 5 3 4 4 5 5 5 5 6 6 6 6 5
8 7 6 7 6 6 5 6 5 4 4 4 5 5 6 5 7 9 9 9 8 7 8 10 8 6 6 8 8 5 3 3 4 4 5 5 5 5 4 3 3 3 2
8 7 7 7 7 7 5 4 4 4 4 4 4 5 5 5 4 4 5 6 8 8 7 8 6 5 6 6 5 4 4 5 5 4 4 4 3 3 3 4 3 3 2
8 7 7 7 8 8 8 8 7 8 7 5 5 5 4 5 6 6 4 4 4 4 4 5 5 5 5 5 5 5 4 4 4 4 4 4 4 4 4 4 4 4 4
8 7 6 6 6 7 8 9 15 12 13 13 11 8 8 9 8 8 9 9 6 3 3 5 5 4 4 4 4 4 4 4 4 4 4 4 4 4 4 4 4 4 4
7 6 6 6 6 6 7 7 8 9 12 13 12 11 10 8 8 7 7 6 4 2 4 5 4 4 4 3 3 3 4 4 4 4 4 4 4 4 4 4 4 4 4
8 7 6 6 5 6 6 6 6 6 7 7 8 9 8 7 6 4 2 3 4 3 4 4 4 3 3 3 3 3 3 3 3 3 3 3 4 4 4 4 4 6 5
7 6 6 6 6 6 6 6 6 6 6 6 7 7 6 6 5 2 0 2 4 4 4 4 3 3 3 3 3 3 3 3 3 3 3 3 4 4 4 4 4 3 5
7 7 6 6 6 6 5 5 6 5 5 5 5 5 5 4 4 4 2 3 4 4 3 3 3 3 3 3 3 2 2 2 2 3 3 3 4 4 4 5 5 5 4
7 8 6 5 6 6 5 5 5 5 5 5 5 5 3 2 4 4 3 3 3 3 3 3 3 3 3 2 3 3 4 3 3 4 3 4 4 4 4 4 4 5 5
7 6 5 5 6 5 5 5 5 5 6 6 6 5 1 0 3 3 3 3 3 3 3 2 2 3 3 3 3 4 4 4 4 4 4 4 4 4 4 4 4 5 5
6 7 6 6 6 6 5 5 5 5 5 5 4 4 3 2 3 3 3 3 3 3 3 2 2 3 3 3 3 4 4 5 4 5 5 5 4 4 4 4 5 5 5
6 6 7 6 6 5 5 5 5 4 4 4 4 3 3 3 3 3 3 3 3 3 3 3 3 4 5 4 3 3 5 6 7 5 6 6 5 5 5 5 5 6 5
6 6 6 6 5 5 5 5 5 4 4 3 3 3 3 3 3 3 2 2 3 3 3 3 2 3 4 5 5 6 7 6 6 8 6 5 5 5 5 6 5 5 6
6 6 5 5 5 5 5 5 4 4 4 3 3 2 2 2 2 2 2 2 2 2 2 2 3 3 3 3 6 6 3 4 5 7 8 5 5 4 6 5 6 5 5
Wind_Direction
180 187 199 205 212 217 216 223 232 238 238 238 239 239 238 238 232 225 233 228 228 233 237 238 245 255 254 253 252 254 252 249 256 268 278 282 265 275 277 259 245 238 186
159 170 184 191 196 195 198 222 226 229 230 224 231 235 236 234 229 227 234 231 229 235 242 254 263 260 254 262 260 257 256 252 254 260 264 272 274 271 275 282 293 286 280
136 143 151 154 146 157 185 214 216 205 205 215 212 227 243 247 237 234 229 225 227 244 261 270 277 280 274 272 267 268 268 260 252 255 262 267 273 286 283 271 315 341 331
129 127 124 117 111 117 138 160 177 172 171 189 185 200 219 238 242 239 223 210 205 239 292 295 297 296 289 283 271 270 272 272 260 256 266 270 277 303 293 269 302 20 350
118 112 105 100 92 85 82 96 126 144 161 159 147 146 151 162 312 259 207 163 133 100 39 26 32 29 27 10 347 338 315 296 286 271 276 302 342 348 320 305 314 307 67
112 108 103 98 89 80 77 82 100 108 111 114 110 108 90 73 53 52 48 84 76 64 58 55 64 58 65 66 54 45 28 5 347 345 2 20 5 353 356 335 306 298 313
108 104 105 104 93 81 85 91 108 113 105 96 91 90 87 67 61 65 68 90 84 70 61 55 53 60 62 80 82 74 58 49 39 27 43 25 17 11 359 11 10 348 353
110 104 100 100 95 88 90 98 97 97 95 86 80 80 81 67 58 62 83 99 84 71 61 54 60 54 41 58 77 71 62 51 49 55 55 42 35 22 14 27 27 111 123
107 102 98 99 98 94 88 85 86 88 87 86 82 79 77 66 47 42 39 106 93 82 71 59 56 63 41 50 83 83 76 72 73 71 66 64 55 36 9 6 5 343 36
106 102 96 95 96 95 90 88 89 90 89 87 78 73 73 68 49 36 19 93 92 89 81 73 59 54 45 37 71 75 72 64 65 75 73 73 67 62 40 19 4 359 5
107 106 100 96 96 95 91 89 93 94 91 87 84 75 68 65 65 47 29 60 84 87 84 79 68 59 58 49 54 61 49 34 69 71 72 65 60 53 47 43 24 12 10
106 104 100 97 95 95 94 92 93 100 103 99 94 86 78 73 63 59 50 45 48 80 77 78 79 71 69 61 60 47 23 10 61 63 59 50 46 43 43 41 38 34 28
111 106 102 98 93 94 97 103 108 109 105 104 101 95 88 82 81 78 73 68 62 76 78 81 87 89 97 82 68 44 36 48 52 54 55 49 44 37 31 46 59 52 53
114 109 107 104 96 83 72 71 75 76 89 95 93 94 95 90 79 84 95 95 101 100 100 111 116 91 83 86 84 63 49 41 32 42 40 40 34 34 23 16 12 9 18
113 110 109 102 95 86 69 47 51 50 33 49 76 84 87 89 60 41 61 76 75 80 102 103 91 86 78 72 66 57 51 53 42 37 32 28 26 23 19 14 3 357 0
119 117 116 113 111 108 102 84 53 57 55 52 47 60 73 77 83 72 66 63 57 28 83 90 83 76 71 66 64 63 54 44 33 29 28 23 17 11 8 7 360 358 2
118 118 116 116 117 116 116 115 107 83 69 62 58 64 80 90 86 86 90 89 70 31 86 82 76 69 63 59 54 49 50 46 24 20 19 15 6 1 359 1 3 356 355
117 111 116 116 116 116 116 117 118 120 114 98 79 76 88 93 90 91 125 142 102 81 75 76 74 69 61 49 45 41 40 39 22 13 13 7 358 353 353 351 1 354 347
118 119 116 115 117 115 115 116 114 113 112 113 115 107 109 122 116 90 134 90 86 83 77 74 67 59 54 47 38 33 28 25 12 357 10 359 352 347 347 342 350 349 323
106 101 113 119 118 117 116 115 115 118 116 113 112 114 135 147 121 113 100 69 81 80 72 73 62 49 44 34 28 15 13 22 12 354 2 348 344 342 341 335 337 334 332
120 120 125 121 115 115 115 112 110 113 111 106 95 78 12 118 108 102 89 72 62 65 57 50 49 43 39 20 11 12 6 9 3 351 347 339 339 338 331 332 333 330 333
123 124 124 116 116 113 114 116 115 113 113 111 112 115 69 42 95 95 88 78 67 56 51 29 26 35 27 16 10 5 3 4 360 348 338 331 328 327 329 333 336 335 335
123 122 120 115 114 117 127 117 114 114 113 113 114 118 125 98 88 88 91 87 73 57 48 36 24 33 32 16 10 8 3 2 352 341 328 324 322 322 325 330 329 328 337
124 123 121 121 124 129 120 116 116 114 114 113 111 111 110 99 88 84 74 70 67 61 50 38 32 35 27 7 4 20 24 1 335 325 321 315 314 322 325 326 325 332 332
127 128 127 127 126 122 119 121 119 118 117 117 116 113 112 107 101 94 83 74 64 55 49 40 35 38 33 23 17 25 31 2 337 327 309 304 316 324 323 324 331 332 332
128 128 130 127 125 126 127 125 122 125 125 122 120 122 120 115 108 101 90 72 59 64 50 50 45 39 29 30 40 37 24 349 332 317 305 305 316 327 328 321 326 322 323